GW3202 Weather Reports


Display with metric or nautical units.
time (UTC)temp
F
wind
direction
speed
MPH
gust
MPH
rain 1hr
in
rain 24hr
in
rain mn
in
humidity
%
barometer
mb
20260903080004 68 89 3.0 5.0 0.00 0.00 0.00 86 1022.0
20260903075004 68 61 2.0 5.0 0.00 0.00 0.00 86 1022.2
20260903072004 68 73 1.0 6.0 0.00 0.00 0.00 84 1022.2
20260903071005 69 106 2.0 5.0 0.00 0.00 0.00 84 1022.2
20260903070003 69 101 2.0 6.0 0.00 0.00 0.00 83 1022.4
20260903065004 69 45 3.0 6.0 0.00 0.00 0.00 84 1022.4
20260903064004 69 93 1.0 5.0 0.00 0.00 0.00 84 1022.4
20260903062004 69 135 2.0 6.0 0.00 0.00 0.00 84 1022.7
20260903061004 69 101 2.0 5.0 0.00 0.00 0.00 84 1022.5
20260903060004 69 67 1.0 5.0 0.00 0.00 0.00 84 1022.5
20260903054004 69 113 1.0 5.0 0.00 0.00 0.00 84 1022.4
20260903053004 69 129 2.0 5.0 0.00 0.00 0.00 85 1022.5
20260903051004 69 86 3.0 8.0 0.00 0.00 0.00 85 1022.4
20260903050004 69 90 1.0 5.0 0.00 0.00 0.00 84 1022.6
20260903045005 69 93 2.0 3.0 0.00 0.00 0.00 84 1022.6
20260903044005 70 78 0.0 3.0 0.00 0.00 0.00 84 1022.6
20260903042004 70 85 2.0 6.0 0.00 0.00 0.00 84 1022.6
20260903041004 70 346 3.0 7.0 0.00 0.00 0.00 84 1022.6
20260903040004 70 99 0.0 3.0 0.00 0.00 0.00 82 1022.5
20260903035004 70 72 2.0 3.0 0.00 0.00 0.00 83 1022.4
20260903034005 71 108 1.0 2.0 0.00 0.00 0.00 83 1022.2
20260903033004 71 114 1.0 3.0 0.00 0.00 0.00 82 1022.3
20260903030005 71 138 1.0 3.0 0.00 0.00 0.00 81 1021.9
20260903024004 71 90 0.0 2.0 0.00 0.00 0.00 80 1021.9
20260903023004 71 101 0.0 3.0 0.00 0.00 0.00 80 1021.9
20260903022004 71 103 0.0 3.0 0.00 0.00 0.00 80 1021.7
20260903021006 71 84 0.0 5.0 0.00 0.00 0.00 80 1021.7
20260903020004 71 120 5.0 6.0 0.00 0.00 0.00 79 1021.5
20260903015004 72 174 1.0 5.0 0.00 0.00 0.00 78 1021.5
20260903014004 72 127 2.0 5.0 0.00 0.00 0.00 78 1021.3
20260903013004 72 91 1.0 3.0 0.00 0.00 0.00 77 1021.3
20260903012004 73 125 0.0 3.0 0.00 0.00 0.00 77 1021.2
20260903011005 73 252 2.0 5.0 0.00 0.00 0.00 76 1021.1
20260903010006 73 130 1.0 7.0 0.00 0.00 0.00 76 1020.9
20260903005004 73 123 2.0 7.0 0.00 0.00 0.00 76 1021.1
20260903003004 73 233 2.0 7.0 0.00 0.00 0.00 75 1021.0
20260903002004 73 135 3.0 7.0 0.00 0.00 0.00 74 1021.1
20260903001006 74 104 3.0 8.0 0.00 0.00 0.00 74 1021.0
20260903000005 74 126 3.0 6.0 0.00 0.00 0.00 74 1020.9
20260902235004 74 180 2.0 12.0 0.00 0.00 0.00 74 1020.9
20260902234004 74 157 6.0 12.0 0.00 0.00 0.00 74 1021.0
20260902233004 74 128 5.0 9.0 0.00 0.00 0.00 72 1020.9
20260902232004 74 183 2.0 12.0 0.00 0.00 0.00 72 1021.0
20260902230004 75 163 3.0 14.0 0.00 0.00 0.00 68 1020.9
20260902224004 76 163 3.0 13.0 0.00 0.00 0.00 67 1020.8
20260902223004 76 162 3.0 9.0 0.00 0.00 0.00 66 1020.7
20260902222004 77 155 5.0 13.0 0.00 0.00 0.00 66 1020.5
20260902221004 76 208 7.0 13.0 0.00 0.00 0.00 65 1020.7
20260902220004 76 121 5.0 14.0 0.00 0.00 0.00 66 1020.9
20260902215004 75 181 7.0 15.0 0.00 0.00 0.00 69 1020.9
20260902213004 76 228 6.0 16.0 0.00 0.00 0.00 67 1020.9
20260902212005 77 171 6.0 16.0 0.00 0.00 0.00 64 1021.0
20260902211005 77 142 10.0 16.0 0.00 0.00 0.00 63 1020.9
20260902210004 76 153 8.0 17.0 0.00 0.00 0.00 65 1021.1
20260902204005 76 180 5.0 18.0 0.00 0.00 0.00 69 1021.3
20260902203004 76 173 8.0 20.0 0.00 0.00 0.00 66 1021.2
20260902202004 76 163 8.0 13.0 0.00 0.00 0.00 64 1021.4
20260902201005 76 232 4.0 15.0 0.00 0.00 0.00 64 1021.6
20260902200004 77 170 3.0 14.0 0.00 0.00 0.00 62 1021.6
20260902195008 76 162 11.0 14.0 0.00 0.00 0.00 62 1021.7
20260902194005 76 175 1.0 14.0 0.00 0.00 0.00 61 1022.0
20260902193005 77 129 2.0 12.0 0.00 0.00 0.00 61 1022.1
20260902192005 76 164 6.0 10.0 0.00 0.00 0.00 61 1022.3
20260902191002 78 168 4.0 10.0 0.00 0.00 0.00 59 1022.2
20260902190002 78 145 4.0 12.0 0.00 0.00 0.00 59 1022.2
20260902185003 74 256 2.0 12.0 0.00 0.00 0.00 61 1022.4
20260902184002 75 219 2.0 12.0 0.00 0.00 0.00 61 1022.6
20260902183005 74 189 5.0 12.0 0.00 0.00 0.00 62 1022.7
20260902182003 74 148 6.0 12.0 0.00 0.00 0.00 64 1022.9
20260902181002 75 183 6.0 10.0 0.00 0.00 0.00 63 1022.9
20260902180005 74 140 5.0 12.0 0.00 0.00 0.00 62 1023.0
20260902175003 76 170 6.0 9.0 0.00 0.00 0.00 62 1023.0
20260902173003 76 184 2.0 5.0 0.00 0.00 0.00 64 1023.4
20260902172002 74 217 2.0 8.0 0.00 0.00 0.00 63 1023.3
20260902170002 74 173 2.0 5.0 0.00 0.00 0.00 65 1023.1
20260902165003 74 176 2.0 5.0 0.00 0.00 0.00 64 1023.2
20260902164002 73 130 2.0 6.0 0.00 0.00 0.00 67 1023.1
20260902163003 71 351 3.0 6.0 0.00 0.00 0.00 68 1023.1
20260902162003 72 91 2.0 5.0 0.00 0.00 0.00 70 1023.0
20260902161003 70 357 2.0 6.0 0.00 0.00 0.00 73 1023.3
20260902160006 72 123 3.0 6.0 0.00 0.00 0.00 71 1023.1
20260902155002 69 19 1.0 6.0 0.00 0.00 0.00 74 1023.1
20260902154003 70 47 1.0 6.0 0.00 0.00 0.00 75 1023.2
20260902153002 70 307 3.0 7.0 0.00 0.00 0.00 77 1023.3
20260902152003 68 53 4.0 9.0 0.00 0.00 0.00 79 1023.2
20260902151002 67 329 3.0 8.0 0.00 0.00 0.00 81 1023.1
20260902150003 68 356 3.0 8.0 0.00 0.00 0.00 81 1023.3
20260902145003 67 21 2.0 8.0 0.00 0.00 0.00 82 1023.3
20260902144003 67 50 1.0 8.0 0.00 0.00 0.00 84 1023.3
20260902143003 67 83 5.0 8.0 0.00 0.00 0.00 84 1023.1
20260902142005 66 26 5.0 8.0 0.00 0.00 0.00 86 1023.2
20260902141003 67 83 3.0 7.0 0.00 0.00 0.00 86 1023.3
20260902140002 67 58 3.0 7.0 0.00 0.00 0.00 86 1023.1
20260902135003 66 103 2.0 7.0 0.00 0.00 0.00 90 1023.0
20260902134002 64 88 1.0 6.0 0.00 0.00 0.00 92 1023.0
20260902133009 64 74 2.0 5.0 0.00 0.00 0.00 93 1022.8
20260902131003 64 58 2.0 6.0 0.00 0.00 0.00 94 1022.6
20260902130006 64 67 2.0 3.0 0.00 0.00 0.00 94 1022.4
20260902125003 64 130 2.0 7.0 0.00 0.00 0.00 94 1022.5
20260902124003 64 111 2.0 6.0 0.00 0.00 0.00 94 1022.4
20260902123002 64 49 2.0 6.0 0.00 0.00 0.00 95 1022.5
20260902122005 64 82 2.0 6.0 0.00 0.00 0.00 95 1022.5
20260902121003 65 117 2.0 3.0 0.00 0.00 0.00 95 1022.6
20260902120003 64 53 2.0 5.0 0.00 0.00 0.00 95 1022.6
20260902115003 65 104 2.0 5.0 0.00 0.00 0.00 95 1022.5
20260902112003 65 63 1.0 5.0 0.00 0.00 0.00 95 1022.5
20260902111003 65 10 1.0 6.0 0.00 0.00 0.00 95 1022.6
20260902110004 65 76 2.0 6.0 0.00 0.00 0.00 95 1022.7
20260902105003 65 103 1.0 6.0 0.00 0.00 0.00 95 1022.5
20260902104003 65 31 2.0 6.0 0.00 0.00 0.00 95 1022.4
20260902103003 65 99 2.0 6.0 0.00 0.00 0.00 95 1022.4
20260902102004 65 118 2.0 5.0 0.00 0.00 0.00 95 1022.7
20260902101002 65 85 1.0 6.0 0.00 0.00 0.00 95 1022.5
20260902100003 65 99 2.0 6.0 0.00 0.00 0.00 94 1022.6
20260902095003 66 113 3.0 6.0 0.00 0.00 0.00 94 1022.7
20260902093003 66 11 2.0 8.0 0.00 0.00 0.00 94 1022.7
20260902092003 66 101 3.0 5.0 0.00 0.00 0.00 93 1023.0
20260902091003 66 49 2.0 3.0 0.00 0.00 0.00 93 1023.0
20260902090004 66 72 2.0 3.0 0.00 0.00 0.00 93 1023.0
20260902085003 66 20 0.0 5.0 0.00 0.00 0.00 93 1023.1
20260902084003 66 17 2.0 5.0 0.00 0.00 0.00 92 1023.1
20260902083003 66 60 1.0 5.0 0.00 0.00 0.00 92 1023.2
20260902082002 66 28 1.0 5.0 0.00 0.00 0.00 93 1023.2
20260902081003 66 131 2.0 5.0 0.00 0.00 0.00 94 1023.3